Regional Weather Roundup
Issued by NWS

Home | Current Version | Previous Version | Text Only | Print | Product List | Glossary On
Versions: 1 2 3 4 5 6 7 8 9 10 11 12 13 14 15 16 17 18 19 20 21 22 23 24 25 26 27 28 29 30 31 32 33 34 35 36 37 38 39 40 41 42 43 44 45 46 47 48 49 50
000
ASUS43 KDTX 241101
RWRMI
MICHIGAN HOURLY REGIONAL WEATHER ROUNDUP
NATIONAL WEATHER SERVICE DETROIT/PONTIAC MI
700 AM EDT TUE MAY 24 2016

NOTE: "FAIR" INDICATES FEW OR NO CLOUDS BELOW 12,000 FEET WITH NO
SIGNIFICANT WEATHER AND/OR OBSTRUCTION TO VISIBILITY.

MIZ047>049-052>055-059>063-066>070-074>076-081>083-241200-
SOUTHEAST LOWER MICHIGAN

CITY           SKY/WX    TMP DP  RH WIND       PRES   REMARKS
ADRIAN         CLEAR     46  43  89 CALM      30.05R
ALMA           CLEAR     47  44  88 SW5       30.01R
ANN ARBOR      FOG       44  43  96 SW3       30.03R VSB 1/4
BAD AXE        CLEAR     50  38  64 CALM      30.00S
CARO           CLEAR     43  41  91 CALM      30.00S
DETROIT CITY   CLEAR     57  48  72 W5        30.03R
DETROIT        PTCLDY    53  48  83 S3        30.04R
FLINT          CLEAR     50  43  77 SW3       30.02R
GROSSE ILE     CLEAR     54  50  87 CALM      30.02R
HILLSDALE      CLEAR     56  36  47 SW3       30.04R
HOWELL         CLEAR     48  43  81 CALM      30.03R

CITY           SKY/WX    TMP DP  RH WIND       PRES   REMARKS
JACKSON        CLEAR     48  42  80 CALM      30.03R
LAMBERTVILLE   CLEAR     48  46  93 CALM      30.04R FOG
LANSING        CLEAR     52  39  61 S3        30.02R
LAPEER         FAIR      43  42  97 CALM      30.02R
MASON          CLEAR     50  42  74 S5        30.02R
MONROE         CLEAR     47  47  99 CALM      30.03R FOG
MT. CLEMENS    CLEAR     48  47  94 W2        30.01R
PONTIAC        CLEAR     52  47  83 CALM      30.02R
PORT HOPE        N/A     58  39  49 SW7       29.97R
PORT HURON     CLEAR     43  43 100 CALM      30.02R FOG
TRI CITIES     CLEAR     57  40  52 S7        30.00S
MIDLAND        FAIR      44  44  99 CALM      29.99R
TROY           CLEAR     55  46  71 SW3       30.04R
SAGINAW HB     CLEAR     50  39  66 S3        29.99S
$$
MIZ043>046-050>051-056>058-064>065-071>073-077>080-241200-
SOUTHWEST LOWER MICHIGAN

CITY           SKY/WX    TMP DP  RH WIND       PRES   REMARKS
BATTLE CREEK   CLEAR     50  40  68 SW3       30.03R
BENTON HARBOR  CLEAR     58  40  51 VRB5      30.00R
BIG RAPIDS     CLEAR     46  44  93 CALM      29.98S
COLDWATER      CLEAR     46  44  91 CALM      30.03R
FREMONT        FAIR      51  41  68 CALM      29.98R
HOLLAND        CLEAR     55  41  59 S5        29.99S
GRAND RAPIDS   PTCLDY    54  41  61 S7        30.00R
IONIA          FAIR      56  35  44 S3        30.00R
KALAMAZOO      CLEAR     51  40  65 CALM      30.03R
LUDINGTON      CLEAR     63  42  47 S7        29.95S
MARSHALL       CLEAR     47  43  84 CALM      30.02R
MOUNT PLEASANT CLEAR     46  46  99 CALM      29.98S FOG
MUSKEGON       PTCLDY    63  42  46 S10       29.98R
SOUTH HAVEN    CLEAR     61  41  47 S5        30.00R
$$
MIZ016>042-241200-
NORTHERN LOWER MICHIGAN

CITY           SKY/WX    TMP DP  RH WIND       PRES   REMARKS
ALPENA         CLEAR     44  41  89 CALM      29.94S
BEAVER ISLAND  CLEAR     63  36  36 SW9       29.90S
BELLAIRE       CLEAR     45  44  94 CALM      29.94R
CADILLAC       CLEAR     45  41  87 CALM      29.97S
CHARLEVOIX     PTCLDY    60  39  46 SE6       29.94S
FRANKFORT      CLEAR     67  41  39 SW5       29.93R
GAYLORD        CLEAR     62  35  36 SW10      29.95F
GRAYLING       CLEAR     43  40  89 CALM      29.97S
HARBOR SPRINGS CLEAR     55  41  60 CALM      29.92S
HOUGHTON LAKE  CLEAR     57  44  62 S7        29.98S
MANISTEE       CLEAR     52  37  58 CALM      29.95R
OSCODA         CLEAR     52  42  68 S5        29.97R
PELLSTON       CLEAR     60  38  43 E7        29.92S
ROGERS CITY    CLEAR     59  39  48 SW3       29.93S
TRAVERSE CITY  MOCLDY    65  36  34 S6        29.92S
$$
MIZ007>008-015-241200-
EASTERN UPPER MICHIGAN

CITY           SKY/WX    TMP DP  RH WIND       PRES   REMARKS
KINROSS          N/A     52  45  76 SE6       29.92S
MACKINAC ISLAN CLEAR     51  43  74 S5        29.91S
NEWBERRY       CLOUDY    57  39  50 S14       29.89R
S. S. MARIE    CLEAR     50  41  71 E3        29.92S
MUNISING         N/A     58  43  57 S9        29.85R
$$
MIZ004>006-011>014-085-241200-
CENTRAL UPPER MICHIGAN

CITY           SKY/WX    TMP DP  RH WIND       PRES   REMARKS
MANISTIQUE     CLOUDY    52  46  79 S8        29.88R
ESCANABA       PTCLDY    54  43  66 CALM      29.87S
MENOMINEE      CLOUDY    60  46  59 CALM      29.89R
SAWYER-GWINN   PTCLDY    54  45  71 CALM      29.87S
$$
MIZ001>003-009>011-084-241200-
WESTERN UPPER MICHIGAN

CITY           SKY/WX    TMP DP  RH WIND       PRES   REMARKS
IRON MOUNTAIN  CLOUDY    59  51  75 N3        29.88R
HOUGHTON       CLOUDY    61  58  90 NW12      29.84R
COPPER HARBOR    N/A     52  51  97 N7        29.84R
IRONWOOD       CLOUDY    61  59  94 CALM      29.82S
$$

ABBREVIATIONS USED IN REMARKS
   TC - TEMPERATURE IN CELSIUS
  WCI - WIND CHILL INDEX
   HX - HEAT INDEX
  VSB - VISIBILITY





USA.gov is the U.S. government's official web portal to all federal, state and local government web resources and services.